EWG9K EDDH-EDDL

Flight info

Callsign EWG9K
Flight time N/A
Altitude 25000
Route IDEKO7G/33 IDEKO N850 ROBEG/N0420F240 DCT DENOL T851 HALME HALME1A
Aircraft A320/M-SDE3FGHIRWY/LB1

Departure

Time 2026-04-30 20:20
Airport Hamburg Helmut Schmidt Airport (EDDH)

Arrival

Time N/A
Airport Düsseldorf Airport (EDDL)
Time Latitude Longitude Altitude Speed Heading
2026-04-30 19:34 53.63294 10.00359 51 ft 0 kts 86°
2026-04-30 20:03 53.63294 10.00342 24 ft 2 kts 87°
2026-04-30 20:03 53.63293 10.00315 33 ft 2 kts 88°
2026-04-30 20:04 53.63293 10.00287 51 ft 2 kts 92°
2026-04-30 20:04 53.63294 10.00259 49 ft 2 kts 105°
2026-04-30 20:04 53.63303 10.00236 51 ft 2 kts 167°
2026-04-30 20:05 53.63311 10.00234 51 ft 0 kts 176°
2026-04-30 20:07 53.63288 10.00238 51 ft 2 kts 174°
2026-04-30 20:08 53.63242 10.00244 51 ft 11 kts 175°
2026-04-30 20:08 53.63172 10.00254 51 ft 9 kts 175°
2026-04-30 20:08 53.63113 10.00262 51 ft 8 kts 176°
2026-04-30 20:08 53.63053 10.00245 51 ft 9 kts 207°
2026-04-30 20:09 53.63014 10.00204 50 ft 0 kts 212°
2026-04-30 20:12 53.63003 10.00193 51 ft 7 kts 212°
2026-04-30 20:13 53.62963 10.00150 48 ft 6 kts 212°
2026-04-30 20:13 53.62935 10.00120 51 ft 0 kts 213°
2026-04-30 20:13 53.62925 10.00109 51 ft 3 kts 213°
2026-04-30 20:13 53.62923 10.00107 51 ft 0 kts 213°
2026-04-30 20:14 53.62888 10.00069 51 ft 7 kts 210°
2026-04-30 20:15 53.62825 10.00086 51 ft 16 kts 149°
2026-04-30 20:15 53.62721 10.00179 50 ft 18 kts 152°
2026-04-30 20:15 53.62616 10.00266 49 ft 12 kts 159°
2026-04-30 20:15 53.62581 10.00239 50 ft 3 kts 231°
2026-04-30 20:16 53.62570 10.00206 50 ft 6 kts 242°
2026-04-30 20:16 53.62566 10.00193 49 ft 0 kts 244°
2026-04-30 20:17 53.62554 10.00151 48 ft 11 kts 244°
2026-04-30 20:17 53.62551 10.00021 45 ft 10 kts 305°
2026-04-30 20:18 53.62570 10.00000 47 ft 0 kts 332°
2026-04-30 20:19 53.62590 9.99982 47 ft 20 kts 333°
2026-04-30 20:19 53.62959 9.99662 49 ft 95 kts 333°
2026-04-30 20:19 53.63724 9.98991 48 ft 150 kts 336°
2026-04-30 20:19 53.64754 9.98109 256 ft 176 kts 334°
2026-04-30 20:20 53.65911 9.97117 687 ft 195 kts 334°
2026-04-30 20:20 53.67160 9.96041 1240 ft 208 kts 334°
2026-04-30 20:20 53.68483 9.94885 1836 ft 216 kts 333°
2026-04-30 20:20 53.69790 9.93603 2610 ft 217 kts 327°
2026-04-30 20:21 53.70942 9.91966 3386 ft 218 kts 311°
2026-04-30 20:21 53.71535 9.89630 3966 ft 224 kts 269°
2026-04-30 20:21 53.71218 9.87053 4444 ft 235 kts 250°
2026-04-30 20:21 53.70654 9.84361 4894 ft 253 kts 249°
2026-04-30 20:22 53.70008 9.81417 5124 ft 274 kts 248°
2026-04-30 20:22 53.69342 9.78343 5680 ft 281 kts 249°
2026-04-30 20:22 53.68683 9.75207 6465 ft 286 kts 249°
2026-04-30 20:22 53.68028 9.72009 7211 ft 291 kts 250°
2026-04-30 20:23 53.67378 9.68746 7975 ft 295 kts 250°
2026-04-30 20:23 53.66726 9.65449 8746 ft 298 kts 251°
2026-04-30 20:23 53.65880 9.62255 9525 ft 299 kts 235°
2026-04-30 20:23 53.64518 9.59611 10210 ft 301 kts 217°
2026-04-30 20:24 53.62747 9.57797 10491 ft 299 kts 198°
2026-04-30 20:24 53.60686 9.57005 10868 ft 311 kts 182°
2026-04-30 20:24 53.58474 9.56623 11212 ft 328 kts 183°
2026-04-30 20:24 53.56146 9.56171 11532 ft 345 kts 184°
2026-04-30 20:25 53.51209 9.55157 12309 ft 370 kts 184°
2026-04-30 20:25 53.48644 9.54625 12946 ft 374 kts 184°
2026-04-30 20:26 53.43428 9.53576 14223 ft 381 kts 183°
2026-04-30 20:26 53.38096 9.52539 15317 ft 389 kts 183°
2026-04-30 20:26 53.35394 9.52021 15853 ft 393 kts 183°